Weather Roundup
Issued by NWS Springfield, MO

Home | Current Version | Previous Version | Text Only | Print | Product List | Glossary On
Versions: 1 2 3 4 5 6 7 8 9 10 11 12 13 14 15 16 17 18 19 20 21 22 23 24 25 26 27 28 29 30 31 32 33 34 35 36 37 38 39 40 41 42 43 44 45 46 47 48 49 50
000
NZUS99 KSGF 280007
HRRSGF

HOURLY WEATHER
NATIONAL WEATHER SERVICE SPRINGFIELD MO
600 PM CST SAT DEC 27 2014

......SGF CWA......

CITY           SKY/WX    TMP DP  RH WIND       PRES   REMARKS
SPRINGFIELD    CLOUDY    31  28  89 NW10      30.22R WCI  22
6HR MIN TEMP:  31; 6HR MAX TEMP:  35; 6HR PCP:  0.06;

JOPLIN         PTCLDY    30  25  81 NW6       30.26S WCI  24
6HR MIN TEMP:  30; 6HR MAX TEMP:  32; 6HR PCP:  0.05;

WEST PLAINS    MIX PCPN  36  33  89 NW6       30.18R WCI  31
6HR MIN TEMP:  36; 6HR MAX TEMP:  40; 6HR PCP:  0.26;

ROLLA          CLOUDY    32  30  92 NW7       30.19S WCI  26
6HR MIN TEMP:  32; 6HR MAX TEMP:  37; 6HR PCP:  0.07;

OSAGE BEACH    CLOUDY    34  30  86 W3        30.22S
BRANSON        CLOUDY    32  32 100 NW10      30.21R WCI  24

......SURROUNDING SGF CWA......

CITY           SKY/WX    TMP DP  RH WIND       PRES   REMARKS
CHANUTE        CLEAR     31  20  63 NW6       30.27R WCI  25
PARSONS        CLEAR     28  20  71 NW3       30.28R
COFFEYVILLE    CLEAR     32  20  61 N5        30.28R WCI  27
EMPORIA        CLEAR     27  18  69 NW6       30.27R WCI  20
GROVE OK       MOCLDY    32  32 100 CALM      30.29R
ROGERS AR      CLOUDY    31  29  92 NW10      30.23R WCI  22
SILOAM SPRINGS CLOUDY    30  25  80 N12       30.26R WCI  21
HARRISON AR    CLOUDY    34  32  92 NW14G20   30.19R WCI  25
NEAR YELLVILLE CLOUDY    37  32  81 NW5       30.20R WCI  34

......KANSAS AND MISSOURI......

CITY           SKY/WX    TMP DP  RH WIND       PRES   REMARKS
KANSAS CTY INT PTCLDY    27  20  75 NW6       30.25S WCI  20
DOWNTOWN KC    CLEAR     31  20  63 NW5       30.26S WCI  26
COLUMBIA       CLOUDY    33  28  81 NW8       30.22R WCI  26
SEDALIA        CLOUDY    33  25  72 NW8       30.24R WCI  26
ST JOSEPH      PTCLDY    24  18  77 NW6       30.28R WCI  17
ST LOUIS       LGTSLEET  36  32  85 W6        30.18F FOG     WCI  31
SPIRIT OF STL  CLOUDY    34  32  92 W7        30.20S WCI  28
KIRKSVILLE     CLOUDY    30  23  75 NW13      30.22R WCI  20
WICHITA        CLEAR     30  17  58 NW8       30.27F WCI  22
TOPEKA         CLEAR     30  18  60 NW8       30.28S WCI  22
OLATHE         CLEAR     29  19  66 NW5       30.24R WCI  24

......TENNESSEE......

CITY           SKY/WX    TMP DP  RH WIND       PRES   REMARKS
MEMPHIS        CLOUDY    55  53  93 CALM      30.08R
NASHVILLE      LGT RAIN  49  47  93 S5        30.15S

......ARKANSAS.......

CITY           SKY/WX    TMP DP  RH WIND       PRES   REMARKS
FAYETTEVILLE   CLOUDY    31  30  96 N8        30.24R WCI  23
FT SMITH       CLOUDY    36  32  85 NW14G20   30.25R WCI  27
LITTLE ROCK    LGT RAIN  45  41  86 N13G23    30.17R FOG

......OKLAHOMA.......

CITY           SKY/WX    TMP DP  RH WIND       PRES   REMARKS
TULSA          PTCLDY    32  25  75 N5        30.28R WCI  27
PONCA CITY     PTCLDY    32  19  58 NW7       30.28S WCI  26
MCALESTER      CLOUDY    33  28  81 N12       30.28R WCI  24
OKLAHOMA CITY  PTCLDY    32  19  58 N7        30.28R WCI  26

......IOWA............

CITY           SKY/WX    TMP DP  RH WIND       PRES   REMARKS
DES MOINES     PTCLDY    25  19  78 NW9       30.22R WCI  15
QUAD CITIES    CLOUDY    32  24  72 W16       30.16R WCI  21

......ILLINOIS........

CITY           SKY/WX    TMP DP  RH WIND       PRES   REMARKS
QUINCY         CLOUDY    33  25  72 NW9       30.19R WCI  25
CHICAGO        CLOUDY    34  26  72 W13       30.07R WCI  25




USA.gov is the U.S. government's official web portal to all federal, state and local government web resources and services.